Home > Time Zones > World Clock > Weather > Japan > Tokyo > Past weeks

Flag for Japan Weather past 2 weeks in Tokyo, Japan

Now
84 °F

Warm.


Feels Like: 92 °F
Forecast: 79 / 92 °F
Wind: 5 mph from South

Location: Tokyo

Current Time: Jul 24, 2014 at 1:28:45 AM

Latest Report: Jul 24, 2014 at 12:00 AM


Visibility: N/A

Pressure: 29.62 "Hg

Humidity: 72%

Dew point: 74 °F

Location of TokyoLocation

Historic Weather in Tokyo — Graph

°F

Tokyo temperature yesterday

Maximum temperature yesterday: 90 °F (at 10:00 AM)
Minimum temperature yesterday: 81 °F (at 1:00 AM)
Average temperature yesterday: 86 °F

Past Weeks' High & Low Weather Summary

 TemperatureHumidityPressure
High93 °F (Jul 11, 12:00 PM)96% (Jul 11, 4:00 AM)29.98 "Hg (Jul 11, 4:00 AM)
Low71 °F (Jul 20, 3:00 AM)53% (Jul 12, 2:00 PM)29.23 "Hg (Jul 11, 3:00 AM)
Average80 °F76%29.76 "Hg
* Reported Midnight between Jul 8 and Jul 9 — Midnight between Jul 23 and Jul 24, Tokyo, Weather by CustomWeather, © 2014

Note: Actual official high and low records may vary slightly from our data, if they occured in-between our weather recording intervals... More about our weather records

Advertising

Tokyo weather history for July 10, 2014

 ConditionsComfort  
Time TempWeatherWind HumidityBarometerVisibility
12:00 AM
Jul 10
74 °FMild.7 mph93%29.73 "HgN/A
1:00 AM75 °FMild.6 mph93%29.70 "HgN/A
2:00 AM76 °FMild.5 mph91%29.68 "HgN/A
3:00 AM76 °FOvercast.7 mph90%29.67 "Hg9 mi
4:00 AM76 °FMild.5 mph92%29.68 "HgN/A
5:00 AM76 °FMild.6 mph91%29.67 "HgN/A
6:00 AM77 °FOvercast.8 mph90%29.65 "Hg6 mi
7:00 AM78 °FWarm.12 mph90%29.65 "HgN/A
8:00 AM79 °FWarm.9 mph89%29.63 "HgN/A
9:00 AM83 °FOvercast.14 mph82%29.61 "Hg9 mi
10:00 AM83 °FWarm.13 mph79%29.60 "HgN/A
11:00 AM83 °FWarm.18 mph77%29.58 "HgN/A
12:00 PM84 °FOvercast.14 mph73%29.57 "Hg12 mi
1:00 PM85 °FWarm.17 mph71%29.53 "HgN/A
2:00 PM84 °FWarm.14 mph75%29.50 "HgN/A
3:00 PM83 °FSprinkles. Overcast.13 mph76%29.50 "Hg12 mi
4:00 PM83 °FWarm.20 mph77%29.47 "HgN/A
5:00 PM82 °FWarm.13 mph80%29.44 "HgN/A
6:00 PM82 °FOvercast.15 mph78%29.44 "Hg12 mi
7:00 PM79 °FWarm.12 mph86%29.44 "HgN/A
8:00 PM79 °FWarm.12 mph88%29.41 "HgN/A
9:00 PM79 °FSprinkles. Overcast.10 mph90%29.41 "Hg5 mi
10:00 PM79 °FWarm.13 mph89%29.38 "HgN/A
11:00 PM79 °FWarm.15 mph85%29.35 "HgN/A
Weather by CustomWeather, © 2014

See weather overviewHow to use our weather pages